STARLINK-11164, 60120

Orbit data source: Space-Track

STARLINK-11164, 60120 is a payload satellite owned by SpaceX/Seattle (US) in LEO that was launched on Mon, 24 Jun 2024 UTC via an FALCON 9 launch vehicle from the Air Force Western Test Range (AFWTR). Payload-class satellites include a variety of spacecraft equipped with specific instruments for various scientific and technological missions. These include communications satellites like Starlink; space stations such as the ISS; scientific satellites like the Hubble; Earth observation satellites from companies like Planet Labs, Umbra, and HawkEye 360; GPS; miniature CubeSats for education and research; and military/defense satellites.

Loading next visibility...
Identifier
60120, 2024-118H
Orbit
LEO
Country
Flag of USUS
Related business
Manufacturer
SpaceX/Seattle
Mission
Operational Commercial Communications
Bus & Motor
STARLINK V2MD, Unknown motor
Mass
960 kg wet, ~910 kg dry
Launch date (UTC)
2024-06-24 (1 year ago)
Launch vehicle
FALCON 9
Launch site
Air Force Western Test Range (AFWTR)
Object type
Payload
Rocket body
Debris
Shape & HBR
Box + 2 Pan, 18.1 m
Radar Cross Section
36.964 m², Large (>1 m²)

Expand to show TLE details & history
Last TLE update: 7 hours ago

TLE from 7 hours ago
0 STARLINK-11164
1 60120U 24118H   25355.43511272  .00001429  00000-0  16655-4 0  9993
2 60120  53.1578 246.9463 0001325  99.8226 260.2942 15.69712000 85707
Epoch: 2025-12-21T10:26Z
TLE epoch observation values (Epoch: 2025-12-21T10:26:33.739Z)
Latitude
-0.00001°
Longitude
0.05811°
Altitude
360.786 km
Speed
7.694 km/s
True Right ascension
16h 27m 47s
True Declination
0° 00' 00"
Sunlit
Object was in daylight at epoch
Visualization orbit readout
Latitude
Unknown
Longitude
Unknown
Altitude
Unknown
Speed
Unknown
Apparent Right ascension
Unknown
Apparent Declination
Unknown
Sunlit
N/A
Visualization observer readout
Local Sidereal Time
16:41:48
Azimuth
Unknown
Elevation
Unknown
Doppler factor
Unknown
Orbital elements
Apogee altitude
360.875 km
Perigee altitude
359.089 km
Semi-major axis
6,738.119 km
Eccentricity
0.00013
Inclination
53.1578°
RAAN
246.9463°
Arg. of periapsis
99.8226°
True anomaly
260.27923°
Mean anomaly
260.2942°
Eccentric anomaly
260.28672°
Mean motion
3.92406 °/min
Orbital period
91.74 mins
BSTAR
0.000016655
Loading maneuver chart data...
Computing Atmospheric mass density...
Loading historical data...
Loading historical data...
Loading historical data...
Loading historical data...
Loading historical data...
Loading historical data...
Loading historical data...

Documentation

Showing up to 5 results
|